When you browse on this site, cookies collect data to enhance your experience and personalize the content and advertising you see.
Visit our Privacy Policy to learn more. By continuing to use the site, you agree to this use of cookies and data.
  • In Austria
  • List of Countries
  • For 7 days
  • Water Temperature
  • Satellite Maps
  • Weather Map
  • News
  • Weather Widgets
  • user-avatar
    Login

    Hourly Weather Peschaniki

    Today, 21 July, Sunday

    Time Temperature Precipitation Wind Pressure Humidity
    00:00 +16°C° 0.1 mm 0 mps 751 mmHg 85%
    01:00 +15°C° 0.1 mm 0 mps 751 mmHg 86%
    02:00 +16°C° 0 mm 1 mps 751 mmHg 84%
    03:00 +15°C° 0 mm 0 mps 751 mmHg 85%
    04:00 +15°C° 0 mm 0 mps 751 mmHg 86%
    05:00 +15°C° 0 mm 0 mps 751 mmHg 86%
    06:00 +17°C° 0 mm 0 mps 751 mmHg 81%
    07:00 +21°C° 0 mm 1 mps 751 mmHg 75%
    08:00 +24°C° 0 mm 1 mps 751 mmHg 70%
    09:00 +25°C° 0.1 mm 1 mps 751 mmHg 65%
    10:00 +26°C° 0.1 mm 1 mps 751 mmHg 59%
    11:00 +28°C° 0.1 mm 1 mps 751 mmHg 54%
    12:00 +28°C° 0.1 mm 1 mps 751 mmHg 52%
    13:00 +28°C° 0.1 mm 1 mps 751 mmHg 50%
    14:00 +29°C° 0.1 mm 1 mps 751 mmHg 49%
    15:00 +29°C° 0 mm 1 mps 751 mmHg 50%
    16:00 +28°C° 0 mm 1 mps 751 mmHg 51%
    17:00 +28°C° 0 mm 1 mps 750 mmHg 53%
    18:00 +26°C° 0 mm 1 mps 750 mmHg 59%
    19:00 +25°C° 0 mm 1 mps 750 mmHg 66%
    20:00 +23°C° 0 mm 1 mps 750 mmHg 72%
    21:00 +22°C° 0.2 mm 1 mps 750 mmHg 76%
    22:00 +21°C° 0.2 mm 1 mps 750 mmHg 79%
    23:00 +20°C° 0.2 mm 2 mps 750 mmHg 82%

    Tomorrow, 22 July, Monday

    Time Temperature Precipitation Wind Pressure Humidity
    00:00 +20°C° 0.1 mm 1 mps 750 mmHg 85%
    01:00 +20°C° 0.1 mm 1 mps 750 mmHg 87%
    02:00 +20°C° 0.1 mm 1 mps 749 mmHg 90%
    03:00 +19°C° 0.4 mm 1 mps 749 mmHg 92%
    04:00 +19°C° 0.4 mm 1 mps 749 mmHg 94%
    05:00 +18°C° 0.4 mm 2 mps 749 mmHg 96%
    06:00 +18°C° 0.3 mm 2 mps 749 mmHg 95%
    07:00 +18°C° 0.3 mm 2 mps 749 mmHg 95%
    08:00 +19°C° 0.3 mm 3 mps 749 mmHg 95%
    09:00 +19°C° 0.9 mm 2 mps 749 mmHg 92%
    10:00 +20°C° 0.9 mm 2 mps 750 mmHg 90%
    11:00 +21°C° 0.9 mm 1 mps 750 mmHg 88%
    12:00 +21°C° 0.8 mm 2 mps 750 mmHg 85%
    13:00 +22°C° 0.8 mm 3 mps 750 mmHg 82%
    14:00 +24°C° 0.8 mm 3 mps 750 mmHg 79%
    15:00 +24°C° 0.6 mm 3 mps 749 mmHg 79%
    16:00 +23°C° 0.6 mm 4 mps 749 mmHg 80%
    17:00 +22°C° 0.6 mm 4 mps 749 mmHg 80%
    18:00 +21°C° 0.1 mm 3 mps 749 mmHg 83%
    19:00 +20°C° 0.1 mm 3 mps 749 mmHg 86%
    20:00 +19°C° 0.1 mm 3 mps 749 mmHg 90%
    21:00 +18°C° 0 mm 3 mps 750 mmHg 91%
    22:00 +17°C° 0 mm 3 mps 750 mmHg 93%
    23:00 +17°C° 0 mm 3 mps 750 mmHg 95%

    Day after tomorrow, 23 July, Tuesday

    Time Temperature Precipitation Wind Pressure Humidity
    00:00 +16°C° 0 mm 3 mps 750 mmHg 94%
    01:00 +14°C° 0 mm 3 mps 750 mmHg 94%
    02:00 +14°C° 0 mm 3 mps 750 mmHg 93%
    03:00 +13°C° 0 mm 3 mps 750 mmHg 94%
    04:00 +13°C° 0 mm 3 mps 750 mmHg 96%
    05:00 +12°C° 0 mm 3 mps 750 mmHg 97%
    06:00 +13°C° 0 mm 3 mps 750 mmHg 94%
    07:00 +14°C° 0 mm 3 mps 749 mmHg 90%
    08:00 +15°C° 0 mm 4 mps 749 mmHg 87%
    09:00 +15°C° 0 mm 4 mps 749 mmHg 86%
    10:00 +17°C° 0 mm 4 mps 750 mmHg 84%
    11:00 +18°C° 0 mm 4 mps 750 mmHg 82%
    12:00 +18°C° 0 mm 4 mps 749 mmHg 80%
    13:00 +19°C° 0 mm 4 mps 749 mmHg 77%
    14:00 +20°C° 0 mm 4 mps 749 mmHg 75%
    15:00 +20°C° 0 mm 3 mps 749 mmHg 76%
    16:00 +20°C° 0 mm 3 mps 749 mmHg 77%
    17:00 +20°C° 0 mm 2 mps 749 mmHg 78%
    18:00 +19°C° 0.1 mm 2 mps 749 mmHg 83%
    19:00 +18°C° 0.1 mm 2 mps 748 mmHg 88%
    20:00 +17°C° 0.1 mm 2 mps 748 mmHg 94%
    21:00 +17°C° 0 mm 2 mps 748 mmHg 95%
    22:00 +16°C° 0 mm 2 mps 749 mmHg 96%
    23:00 +16°C° 0 mm 2 mps 749 mmHg 97%

    24 July, Wednesday

    Time Temperature Precipitation Wind Pressure Humidity
    00:00 +16°C° 0 mm 2 mps 749 mmHg 97%
    01:00 +15°C° 0 mm 2 mps 749 mmHg 97%
    02:00 +15°C° 0 mm 2 mps 749 mmHg 97%
    03:00 +15°C° 0 mm 2 mps 749 mmHg 97%
    04:00 +15°C° 0 mm 2 mps 749 mmHg 97%
    05:00 +15°C° 0 mm 2 mps 749 mmHg 97%
    06:00 +16°C° 0 mm 2 mps 749 mmHg 92%
    07:00 +18°C° 0 mm 2 mps 749 mmHg 87%
    08:00 +20°C° 0 mm 3 mps 749 mmHg 82%
    09:00 +21°C° 0 mm 3 mps 750 mmHg 74%
    10:00 +24°C° 0 mm 3 mps 750 mmHg 67%
    11:00 +26°C° 0 mm 4 mps 750 mmHg 59%
    12:00 +26°C° 0 mm 4 mps 750 mmHg 57%
    13:00 +27°C° 0 mm 4 mps 750 mmHg 55%
    14:00 +27°C° 0 mm 4 mps 749 mmHg 53%
    15:00 +27°C° 0 mm 4 mps 749 mmHg 55%
    16:00 +27°C° 0 mm 4 mps 749 mmHg 58%
    17:00 +26°C° 0 mm 4 mps 749 mmHg 60%
    18:00 +25°C° 0 mm 3 mps 750 mmHg 67%
    19:00 +22°C° 0 mm 3 mps 750 mmHg 73%
    20:00 +20°C° 0 mm 3 mps 750 mmHg 80%
    21:00 +19°C° 0 mm 2 mps 750 mmHg 83%
    22:00 +18°C° 0 mm 2 mps 751 mmHg 85%
    23:00 +18°C° 0 mm 2 mps 751 mmHg 88%

    25 July, Thursday

    Time Temperature Precipitation Wind Pressure Humidity
    00:00 +17°C° 0 mm 2 mps 751 mmHg 89%
    01:00 +17°C° 0 mm 2 mps 751 mmHg 90%
    02:00 +16°C° 0 mm 2 mps 751 mmHg 92%
    03:00 +16°C° 0 mm 2 mps 752 mmHg 92%
    04:00 +16°C° 0 mm 2 mps 752 mmHg 92%
    05:00 +16°C° 0 mm 2 mps 752 mmHg 92%
    06:00 +17°C° 0 mm 2 mps 752 mmHg 85%
    07:00 +19°C° 0 mm 2 mps 752 mmHg 79%
    08:00 +21°C° 0 mm 2 mps 752 mmHg 73%
    09:00 +24°C° 0 mm 3 mps 753 mmHg 65%
    10:00 +25°C° 0 mm 3 mps 753 mmHg 58%
    11:00 +27°C° 0 mm 3 mps 753 mmHg 51%
    12:00 +27°C° 0 mm 3 mps 752 mmHg 50%
    13:00 +28°C° 0 mm 4 mps 752 mmHg 50%
    14:00 +28°C° 0 mm 4 mps 752 mmHg 49%
    15:00 +28°C° 0 mm 4 mps 752 mmHg 52%
    16:00 +28°C° 0 mm 3 mps 752 mmHg 55%
    17:00 +27°C° 0 mm 3 mps 752 mmHg 58%
    18:00 +26°C° 0 mm 3 mps 752 mmHg 66%
    19:00 +24°C° 0 mm 3 mps 752 mmHg 73%
    20:00 +21°C° 0 mm 2 mps 752 mmHg 80%
    21:00 +20°C° 0 mm 2 mps 752 mmHg 81%
    22:00 +19°C° 0 mm 2 mps 752 mmHg 82%
    23:00 +17°C° 0 mm 2 mps 752 mmHg 83%

    26 July, Friday

    Time Temperature Precipitation Wind Pressure Humidity
    00:00 +17°C° 0 mm 2 mps 752 mmHg 84%
    01:00 +17°C° 0 mm 2 mps 752 mmHg 85%
    02:00 +16°C° 0 mm 2 mps 752 mmHg 86%
    03:00 +16°C° 0 mm 2 mps 752 mmHg 87%
    04:00 +16°C° 0 mm 2 mps 752 mmHg 89%
    05:00 +16°C° 0 mm 2 mps 752 mmHg 91%
    06:00 +18°C° 0 mm 2 mps 752 mmHg 85%
    07:00 +20°C° 0 mm 3 mps 752 mmHg 80%
    08:00 +21°C° 0 mm 3 mps 752 mmHg 75%
    09:00 +24°C° 0 mm 3 mps 752 mmHg 67%
    10:00 +26°C° 0 mm 3 mps 752 mmHg 60%
    11:00 +27°C° 0 mm 3 mps 752 mmHg 52%
    12:00 +28°C° 0 mm 3 mps 752 mmHg 51%
    13:00 +28°C° 0 mm 3 mps 752 mmHg 50%
    14:00 +29°C° 0 mm 3 mps 751 mmHg 50%
    15:00 +28°C° 0 mm 3 mps 751 mmHg 53%
    16:00 +28°C° 0 mm 3 mps 751 mmHg 55%
    17:00 +28°C° 0 mm 3 mps 751 mmHg 58%
    18:00 +26°C° 0 mm 2 mps 751 mmHg 67%
    19:00 +24°C° 0 mm 2 mps 751 mmHg 75%
    20:00 +21°C° 0 mm 2 mps 751 mmHg 83%
    21:00 +21°C° 0 mm 2 mps 751 mmHg 85%
    22:00 +20°C° 0 mm 2 mps 751 mmHg 88%
    23:00 +19°C° 0 mm 2 mps 751 mmHg 90%
    Show more